Zurück zum Katalog

FENGYUN 1C DEB

AktivPO
NORAD 37593·DEBRIS·🇨🇳 China

Gestartet May 10, 1999 von Taiyuan Satellite Launch Center

Loading…

Nächste Überflüge (nächste 24 Stunden)

TLE

AlterndSource: Space-Track

Epoche: Sep 5, 2026, 13:14 UTC

1 37593U 99025EKM 26248.55181777  .00001801  00000-0  53617-3 0  9990
2 37593  98.9975 143.5672 0148041  52.2708  67.2978 14.38305098899541

Verfolge FENGYUN 1C DEB in Echtzeit mit AllMySat

Download on the App Store